Theta_e
311 311 311 311 311 311 311 310 310 309 308 304 301 303 294 293 290 300 303 305 302 295 288 293 293 291 294 298 297 300 299 298 299 297 299 295 297 296 296 296 295 297 296 297 297 298 295 297 295 297 298 298 301 301 302 302 303 307 304 305 305 321 298 294 296 298 301 303 304 304 306 307 304 304 304 301 297 296 294 290 290 291 292 291 291 291 290
311 311 311 311 311 310 310 310 310 309 308 304 304 298 294 294 293 295 302 304 301 292 285 286 288 291 295 295 295 298 297 298 296 295 295 294 294 294 295 296 298 295 298 296 294 298 291 298 297 295 298 297 303 301 301 303 300 301 302 301 306 299 299 296 290 290 292 298 299 299 303 304 302 301 302 303 303 300 296 297 297 294 291 292 289 288 290
311 311 311 311 310 310 309 309 310 310 309 308 303 295 296 294 296 295 298 303 299 290 293 290 290 290 290 291 290 293 294 297 296 295 294 297 297 297 295 296 298 296 297 295 296 297 296 292 298 297 297 296 302 301 299 302 301 306 314 319 311 302 299 296 291 288 286 287 288 291 294 298 301 302 302 303 302 299 296 294 293 287 292 294 289 290 291
311 311 311 310 310 310 309 309 310 310 309 309 303 299 295 291 284 291 293 296 296 296 297 294 291 289 289 288 289 292 290 294 297 297 295 297 297 297 297 298 298 295 294 292 292 293 296 293 293 294 292 295 298 299 299 302 303 314 318 316 307 301 301 300 298 295 292 294 294 298 301 299 298 299 300 301 303 302 300 296 291 291 289 294 291 296 296
311 310 310 310 310 309 309 309 310 310 309 308 303 300 296 295 287 288 285 292 292 291 293 292 292 287 292 285 290 288 290 291 293 297 292 297 296 296 296 295 293 292 292 290 291 293 292 294 295 292 291 294 295 298 301 302 309 315 309 312 305 301 297 299 299 299 299 300 299 302 303 299 300 299 299 301 301 301 299 295 294 294 292 291 293 297 298
310 310 310 310 309 309 309 309 309 309 308 308 304 294 296 287 291 292 293 287 284 287 288 292 290 292 292 289 292 289 289 289 288 294 295 295 296 292 294 295 295 294 292 292 288 290 290 292 290 292 292 291 294 294 299 299 307 306 301 306 302 298 295 300 300 299 301 301 301 302 303 301 301 301 300 299 301 301 298 298 296 297 294 293 294 298 299
310 310 310 310 309 309 309 309 309 309 307 307 302 292 296 294 293 292 296 288 290 290 290 292 291 290 291 290 291 288 289 288 291 291 291 293 291 293 288 291 293 294 294 292 289 290 286 287 291 290 290 290 291 291 294 300 301 299 299 301 302 299 295 300 301 299 300 301 301 303 301 302 301 301 301 301 301 300 301 300 299 298 297 297 297 298 300
311 311 310 310 309 309 309 309 309 308 306 307 300 297 292 290 290 288 294 292 290 291 291 291 290 287 291 286 288 290 290 289 291 293 291 288 290 294 290 290 293 293 294 293 289 291 291 290 288 292 290 290 292 290 292 292 297 298 296 299 302 299 295 305 300 298 298 301 302 302 302 301 301 300 301 302 301 301 301 301 300 301 299 299 297 297 298
311 310 310 310 309 309 309 309 309 308 307 301 298 297 298 296 298 297 290 286 289 292 290 289 288 286 288 286 289 290 290 289 291 290 294 292 290 292 289 292 293 294 293 293 292 295 294 294 293 293 293 288 293 290 291 295 292 296 296 298 299 300 295 300 298 294 295 300 301 301 302 301 299 298 299 299 300 299 300 299 300 299 298 299 298 296 297
311 310 310 310 310 309 308 308 308 306 306 301 300 294 300 301 303 299 294 286 291 288 290 289 288 284 288 289 289 289 289 291 291 288 294 295 296 294 293 293 292 291 292 292 293 296 296 296 296 296 296 297 297 297 296 297 294 294 295 298 296 298 296 295 294 292 293 299 300 300 300 299 296 297 299 300 300 300 302 303 305 304 303 299 296 297 300
310 310 310 310 309 309 309 309 308 307 306 300 298 297 298 296 294 296 295 286 288 289 288 287 286 289 290 291 290 292 291 292 292 287 288 294 294 296 295 293 290 289 290 294 299 300 299 299 299 300 299 298 298 298 298 299 300 298 296 296 298 299 298 296 298 291 293 298 299 300 295 290 293 302 303 303 301 301 301 300 301 302 304 300 303 304 302
310 310 310 310 310 309 309 309 308 308 306 305 304 299 300 300 299 296 291 284 286 290 287 285 287 288 288 290 290 290 290 291 291 293 289 292 294 296 295 294 293 287 296 300 301 301 302 302 300 299 299 298 298 299 299 297 298 302 302 299 298 298 298 296 297 293 292 296 300 296 290 291 301 304 305 305 305 304 303 303 304 304 305 306 307 307 304
310 310 310 310 310 309 309 309 309 308 307 306 304 299 302 303 299 295 292 288 285 287 285 286 290 290 291 290 290 291 293 294 294 294 294 293 293 294 296 294 293 295 301 299 300 299 295 292 293 294 295 297 298 299 298 298 299 301 302 303 300 298 297 296 296 295 294 294 294 290 291 300 307 304 306 307 305 304 304 307 313 315 307 305 309 311 311
310 310 310 311 311 310 309 309 308 308 306 306 303 301 302 302 297 295 293 288 287 289 290 288 289 289 290 290 291 291 292 292 293 294 292 295 293 293 296 299 299 302 302 302 301 300 293 294 288 290 290 294 293 292 296 299 299 300 300 302 303 301 299 299 295 298 290 292 293 294 301 303 305 305 307 304 301 302 302 304 308 316 318 313 313 314 316
310 310 310 310 311 311 310 310 309 308 307 307 306 304 302 302 301 297 297 293 286 289 291 284 287 289 290 290 291 289 289 289 290 290 295 296 294 296 296 299 302 301 301 298 298 296 293 293 286 284 286 287 283 288 300 299 304 307 306 307 309 305 298 300 295 293 295 291 290 293 293 291 295 302 309 313 311 310 314 312 308 317 320 319 318 317 319
310 310 310 310 309 310 311 310 309 308 306 306 306 303 303 304 304 302 297 293 290 283 288 292 293 291 289 289 291 289 287 288 289 290 290 292 293 296 299 301 301 301 302 300 298 293 291 288 284 286 282 287 292 291 291 297 297 304 307 307 307 309 304 301 299 296 297 293 288 289 290 292 298 306 309 312 313 318 314 311 304 314 319 320 322 321 321
310 310 310 309 311 309 310 310 310 308 307 306 302 301 300 305 303 300 297 295 292 287 294 294 294 293 290 289 291 290 291 287 289 286 286 288 292 294 297 300 301 301 300 297 296 293 289 288 290 288 290 292 287 288 295 294 294 298 303 304 305 305 303 302 298 298 298 292 290 288 294 295 301 308 312 311 311 311 306 296 300 312 320 323 323 321 321
310 310 310 310 309 309 310 309 309 309 307 307 304 301 300 305 306 304 298 295 290 290 293 295 292 289 288 289 289 292 294 292 291 294 290 292 292 293 295 296 294 300 302 294 294 289 288 287 284 286 284 293 293 294 284 292 294 295 296 298 299 300 302 301 296 296 297 298 291 293 297 306 312 312 314 313 313 307 297 289 303 316 320 324 324 324 324
310 310 311 311 311 309 309 309 309 308 308 307 306 304 302 304 305 304 299 295 292 287 294 298 299 294 295 297 294 294 294 293 292 288 288 288 290 297 296 296 297 291 298 292 293 289 288 287 293 290 287 291 294 286 295 292 292 300 299 298 298 299 302 302 302 297 295 295 293 291 296 307 313 314 317 317 310 298 291 304 317 322 326 329 330 328 329
310 310 310 311 311 310 309 310 309 309 308 308 305 300 301 304 306 305 298 293 295 292 295 296 297 294 297 294 292 291 292 293 293 290 289 286 293 296 291 288 295 297 293 293 287 293 289 286 289 293 289 290 293 300 293 294 301 297 299 304 301 299 300 297 297 301 300 298 293 290 288 301 314 314 313 316 304 302 312 321 324 329 328 328 328 329 329
310 310 309 310 310 310 309 309 309 309 309 308 306 302 300 304 305 306 304 299 294 290 292 299 299 297 297 296 297 297 295 291 292 289 291 292 295 292 282 285 291 292 288 290 285 287 289 286 289 289 295 293 295 297 288 293 296 302 302 303 303 308 299 296 299 305 294 295 294 293 303 309 315 314 304 311 314 319 321 324 323 327 328 327 326 326 327
310 310 310 310 310 310 310 309 309 308 308 308 307 302 299 303 305 306 306 304 296 293 294 298 300 298 300 300 300 300 298 296 297 298 293 291 293 293 292 293 293 296 298 298 293 291 294 291 293 289 288 291 297 292 295 288 288 298 306 308 296 308 303 304 294 305 302 299 303 309 310 314 317 316 315 321 326 326 328 327 326 324 324 327 325 325 326
310 309 309 309 309 310 309 309 309 309 309 309 307 302 299 301 302 308 305 298 300 301 302 300 301 301 303 304 305 304 303 303 301 300 299 293 291 292 291 291 292 303 302 302 295 293 292 293 288 293 290 293 292 292 296 294 292 298 297 305 307 312 313 314 308 307 313 312 311 314 315 315 316 318 318 319 323 325 325 324 322 323 325 325 323 322 322
310 309 310 310 310 309 309 309 309 309 309 309 307 301 300 301 303 303 302 300 296 292 296 298 294 291 294 296 302 304 306 305 305 303 304 301 291 290 294 296 298 301 301 303 304 297 296 296 294 295 288 295 297 293 289 289 293 299 300 301 308 310 312 311 305 310 301 294 310 312 314 316 316 316 318 320 321 321 322 321 322 322 322 321 321 320 319
310 310 310 310 310 310 309 309 309 309 309 309 307 307 305 302 303 304 299 292 293 292 287 291 293 297 300 302 302 301 302 304 307 306 304 302 298 293 292 297 304 298 296 300 306 301 299 292 292 291 287 297 299 290 300 293 293 301 295 301 303 304 314 308 309 309 304 303 309 312 316 317 317 316 314 314 316 318 317 317 317 317 317 318 318 319 318
310 310 310 309 309 309 309 310 309 309 309 309 308 301 299 300 303 304 303 301 299 295 289 288 292 300 302 300 299 302 305 304 303 302 303 304 303 301 299 300 299 301 300 308 304 298 297 296 295 294 290 293 303 295 295 300 297 303 299 298 305 307 311 301 308 305 308 311 313 313 315 315 314 315 315 315 315 314 315 316 315 315 315 314 315 316 315
310 309 310 310 309 309 309 309 309 309 309 309 306 303 302 302 304 303 300 300 294 290 292 288 293 297 299 297 301 303 303 303 303 302 301 302 302 303 301 299 297 298 297 299 304 301 298 296 297 292 295 295 302 298 300 298 298 296 297 304 311 308 302 309 309 301 301 301 306 312 306 305 311 313 314 315 315 315 316 314 314 313 313 313 312 312 314
310 310 310 310 310 309 309 309 309 309 308 309 307 304 304 302 303 304 305 303 297 290 291 290 290 294 300 297 301 302 303 304 303 302 301 301 301 301 300 299 298 296 296 294 292 294 294 292 292 300 301 302 298 297 304 303 303 298 298 300 309 305 306 307 303 302 300 310 314 315 314 312 313 314 316 316 316 315 313 313 312 312 312 312 311 311 311
310 310 310 310 310 310 310 310 309 309 309 307 303 302 302 303 305 306 306 308 304 298 295 295 297 294 288 293 301 300 303 303 302 301 301 301 301 300 299 298 297 297 297 296 295 295 294 295 301 299 296 307 299 296 299 293 293 291 297 305 309 311 314 312 311 312 312 315 316 317 312 310 312 315 316 317 318 315 313 313 312 312 311 311 310 311 310
311 310 310 310 310 310 310 310 310 309 309 304 299 296 293 298 304 306 308 308 304 300 292 289 286 290 298 298 297 300 301 304 305 304 303 300 299 299 299 298 297 300 298 295 296 292 295 296 301 304 306 310 298 299 295 295 294 297 306 308 309 312 313 314 315 312 310 318 319 317 315 314 316 316 317 317 318 316 316 314 313 312 312 313 312 311 312
311 310 310 310 310 310 310 309 309 309 309 301 298 291 288 286 296 309 310 308 305 299 294 294 289 294 293 299 299 299 301 303 302 302 302 302 301 299 299 299 299 300 295 296 296 295 300 296 299 301 308 307 304 298 295 295 293 295 304 306 308 310 311 312 313 316 318 317 319 320 318 315 317 317 316 316 316 316 314 314 318 320 317 315 314 313 312
311 311 310 310 310 310 310 310 310 309 306 302 297 294 294 294 300 307 308 308 305 298 293 288 289 290 290 295 300 303 303 303 304 304 302 303 298 300 299 298 297 300 299 297 302 297 297 299 298 298 298 306 303 298 298 295 293 294 304 307 310 310 310 311 313 314 316 317 316 313 312 313 316 313 312 316 316 316 315 316 316 316 319 317 316 315 314
311 311 310 310 310 310 310 310 310 309 306 306 308 307 307 306 307 307 308 304 300 296 297 292 287 290 289 292 300 302 302 301 300 300 299 303 299 300 296 299 299 299 313 302 296 295 304 301 302 297 303 307 301 298 297 296 298 304 307 308 309 309 310 313 315 314 313 313 315 308 306 308 311 314 315 315 315 315 316 316 315 313 313 314 314 315 315
311 310 310 310 310 310 310 310 310 309 309 305 300 302 306 308 307 307 307 304 300 300 300 293 289 288 289 300 292 298 302 298 297 300 294 303 305 299 293 296 298 295 300 296 303 302 305 303 298 300 304 301 303 299 293 299 304 306 308 308 310 311 312 312 312 311 311 313 315 315 316 316 316 316 316 315 314 315 317 314 312 311 311 312 312 313 314
309 309 309 310 310 311 311 310 307 306 301 302 302 305 308 310 309 309 308 303 295 293 294 294 294 288 289 291 289 294 306 300 295 299 297 301 307 299 298 296 296 292 300 308 300 298 299 300 305 299 296 303 300 293 297 302 303 307 308 308 310 311 311 310 309 311 312 313 314 314 316 316 314 312 313 315 313 313 313 313 312 311 310 310 312 313 314
309 310 311 311 310 310 307 308 305 304 300 300 302 309 313 313 313 310 309 308 302 295 293 293 294 289 291 285 286 296 305 299 302 302 302 303 300 306 303 300 294 301 306 298 293 300 298 306 301 294 302 296 294 299 302 307 305 306 307 307 309 310 310 310 310 312 313 313 313 313 313 313 312 312 313 313 314 314 314 313 313 312 311 310 311 312 313
310 310 311 311 307 307 301 301 306 305 304 308 312 316 314 311 310 311 308 305 307 306 296 293 289 290 292 291 296 302 302 292 301 298 300 300 299 304 303 298 295 302 300 297 296 297 303 310 300 295 296 294 297 305 307 308 307 307 307 309 312 313 313 313 314 313 312 312 312 311 312 311 311 312 312 313 313 315 314 311 311 311 310 311 313 313 313
310 310 306 303 301 297 296 300 303 308 314 314 314 308 306 305 298 300 301 297 302 303 298 297 289 293 299 295 289 302 301 296 302 295 298 303 299 298 305 299 299 299 291 294 300 307 305 301 296 295 295 301 305 307 308 309 310 311 312 311 312 313 313 313 314 312 308 307 307 309 310 310 310 311 311 311 313 313 313 314 314 315 314 314 314 315 316
308 308 307 305 299 296 297 301 309 314 310 310 309 302 299 302 298 294 295 298 300 293 299 295 291 295 294 292 294 302 299 296 295 298 293 301 297 293 301 291 299 299 290 291 297 308 294 293 293 292 290 297 300 305 309 310 311 312 312 313 313 315 315 314 315 312 310 308 309 311 311 309 309 310 312 312 313 314 313 314 314 315 315 316 315 315 315
305 302 301 300 298 300 306 309 313 309 307 302 304 299 294 300 293 288 301 292 290 296 298 289 298 298 298 294 294 295 306 298 293 294 297 299 308 294 298 297 298 295 287 288 295 307 294 286 293 291 289 298 302 307 308 310 310 311 313 314 315 315 315 315 316 318 316 315 316 315 315 315 315 313 312 312 312 311 313 313 314 314 314 316 319 316 315
301 301 300 298 301 304 304 306 306 304 301 298 297 299 296 288 296 299 296 291 290 293 303 299 302 299 302 301 299 293 307 309 305 306 302 296 306 303 296 291 301 292 287 287 300 302 296 292 290 290 291 300 304 307 309 309 310 311 312 314 316 315 314 315 315 317 316 315 315 315 315 316 314 313 314 313 313 313 313 313 313 314 314 314 314 315 317
303 302 302 304 304 304 305 305 304 301 302 301 293 287 290 294 297 292 292 286 290 297 300 301 296 298 299 302 301 303 303 311 306 304 300 294 302 299 296 298 299 290 286 296 304 300 296 286 286 291 300 304 307 308 308 308 309 310 311 312 312 313 313 314 315 315 316 314 313 314 314 314 313 314 314 314 314 313 313 313 314 314 315 315 317 317 317
307 307 306 303 304 301 302 290 296 297 288 288 288 287 293 288 291 290 294 297 301 298 298 305 303 306 308 311 305 307 305 309 302 301 299 296 303 302 297 293 292 286 293 304 299 292 288 286 288 295 302 305 308 309 309 310 311 311 312 313 313 313 313 313 313 313 314 314 313 313 314 314 314 315 316 316 315 315 316 318 318 315 315 316 316 317 317
306 308 303 300 293 296 299 285 297 296 290 289 287 284 290 289 291 295 293 296 299 300 304 299 300 300 297 307 303 303 306 306 308 303 300 303 299 296 295 289 291 300 304 294 292 287 289 294 297 300 304 306 308 309 309 311 311 311 310 312 314 313 313 312 313 313 313 314 314 314 314 314 314 315 316 316 315 314 315 316 318 318 317 317 316 317 318
300 294 289 288 287 290 291 286 293 288 286 289 290 290 292 288 292 294 293 300 302 298 303 304 303 302 300 306 307 306 305 300 308 301 296 300 296 297 294 291 299 300 295 288 291 292 292 292 300 303 304 305 307 309 311 311 312 311 311 312 312 313 313 313 313 312 312 313 313 314 313 314 314 314 314 315 315 315 314 314 315 316 315 315 316 316 317
298 293 289 286 286 289 289 287 289 288 292 294 293 296 295 296 297 296 301 303 301 302 302 303 304 303 301 306 300 299 304 303 299 300 301 300 295 291 300 302 301 293 290 290 287 286 289 295 299 302 305 306 308 309 310 310 311 311 310 308 310 312 313 313 313 314 314 314 315 314 314 314 313 313 313 313 314 314 314 314 315 315 315 315 315 316 317
295 299 290 288 286 289 297 289 290 293 295 296 298 299 299 300 302 302 303 303 302 304 305 306 304 302 298 301 302 302 304 304 299 300 302 294 294 296 301 297 290 292 288 285 286 287 292 298 302 305 307 308 308 309 309 310 310 309 309 309 309 309 311 312 312 312 312 312 311 311 311 311 311 311 311 311 311 313 315 316 316 317 316 314 315 316 316
293 297 292 287 286 288 290 294 300 299 301 300 300 302 303 303 301 300 303 304 305 306 305 304 300 301 300 306 304 297 298 300 297 295 300 297 299 294 289 292 291 294 294 291 291 296 298 301 304 306 308 309 308 308 309 309 309 310 310 309 309 308 308 309 309 310 311 310 310 310 310 309 310 310 310 311 312 313 314 314 314 314 315 315 315 315 315
303 293 289 287 293 295 296 299 299 296 298 302 303 303 303 302 302 304 307 307 306 305 306 303 302 301 295 300 297 296 293 297 292 289 296 294 290 287 288 285 287 287 294 297 296 299 300 304 307 308 308 309 309 309 309 310 310 310 311 311 311 309 309 309 309 311 311 310 310 310 310 312 311 310 309 309 309 309 311 312 312 311 312 314 313 312 311
292 290 296 290 295 297 298 300 297 295 299 301 301 301 303 302 302 305 308 307 307 306 306 303 304 297 294 296 288 291 291 296 296 293 294 291 293 295 293 287 290 291 293 299 300 302 304 306 307 307 308 309 310 309 309 310 312 312 311 310 310 310 309 309 309 309 310 310 310 310 310 310 308 309 309 309 309 310 311 312 311 310 311 312 312 312 312
296 292 294 300 296 295 295 293 294 294 297 299 300 302 302 302 302 304 308 308 305 302 300 296 295 292 289 291 289 288 289 299 297 294 293 293 297 295 291 290 293 297 299 302 304 306 306 307 307 307 307 308 309 310 310 311 311 312 311 309 309 309 309 309 309 309 309 310 311 315 309 309 309 309 310 310 310 309 309 311 312 310 310 310 310 310 310
290 291 293 298 300 299 299 299 300 299 299 301 302 304 305 302 304 306 309 306 304 299 297 299 295 290 288 289 293 298 300 296 291 294 291 295 299 294 293 295 297 300 302 302 303 306 308 308 309 310 309 310 311 311 312 312 312 312 312 311 311 309 309 309 309 309 309 309 309 309 309 309 310 310 311 310 309 308 307 307 310 310 310 309 309 309 309
Wind_Speed
19 19 19 18 18 16 15 15 14 12 12 6 6 4 4 4 9 19 18 14 8 6 3 4 3 3 5 9 11 9 10 10 9 11 8 9 7 8 8 7 10 7 9 10 10 10 13 12 12 12 11 14 13 7 17 20 19 12 12 17 14 10 5 9 11 6 12 9 6 5 10 17 15 14 12 11 10 8 8 7 5 5 2 5 2 7 9
20 19 18 18 16 14 14 14 13 11 9 5 5 5 5 7 9 11 3 9 6 2 2 4 7 7 10 9 11 10 10 10 9 7 7 6 5 6 7 9 4 3 7 4 7 10 5 5 9 6 9 9 14 17 18 24 10 10 5 4 7 9 8 6 7 5 7 13 8 6 3 7 10 11 13 15 13 11 4 4 2 5 6 6 7 14 5
20 19 17 16 14 14 13 12 11 10 7 5 4 4 4 6 6 8 8 5 3 2 3 6 6 9 10 11 8 10 7 8 11 10 10 9 5 7 4 7 7 5 6 6 6 7 7 6 6 11 7 10 10 7 28 19 12 7 17 12 12 15 10 10 11 14 13 13 15 13 12 14 9 6 15 15 19 15 7 10 3 7 5 6 5 5 6
20 19 17 16 15 14 12 11 10 10 6 6 2 2 5 3 8 7 5 3 5 1 8 6 10 9 12 13 9 10 10 10 10 13 11 9 10 6 8 7 3 5 9 7 8 7 6 6 7 6 10 12 8 11 23 14 11 21 17 21 9 4 7 13 16 15 15 12 2 3 7 4 11 8 12 16 17 17 14 5 6 14 3 6 8 3 1
20 19 18 16 15 13 12 11 9 8 6 3 2 2 2 3 4 6 8 8 1 7 5 8 9 8 11 5 6 9 11 10 10 7 5 5 9 10 6 4 6 6 8 6 7 5 14 12 6 5 12 10 10 17 8 10 11 27 18 22 7 3 6 13 17 18 17 16 15 8 8 10 13 11 12 15 18 17 16 12 13 6 6 14 4 5 5
21 21 20 18 15 13 12 11 9 6 4 1 1 3 2 3 3 3 3 5 9 11 8 9 11 11 9 6 8 9 11 9 7 10 7 13 10 7 2 5 4 7 6 8 5 9 11 8 9 12 2 15 18 16 12 7 16 21 13 13 5 3 4 10 13 20 19 16 19 17 7 8 10 15 12 16 18 19 19 16 7 11 9 13 5 8 8
23 22 22 20 16 13 12 11 9 5 2 1 1 3 4 4 3 5 4 2 5 6 11 16 12 13 9 6 9 10 9 9 7 4 8 7 7 9 9 10 8 6 6 3 3 5 8 6 6 5 12 12 17 12 15 4 15 16 16 14 6 5 5 4 10 16 19 18 18 19 18 8 6 11 13 14 18 20 21 17 11 13 8 8 9 9 11
23 20 20 19 15 12 11 10 7 5 1 2 3 5 4 4 3 2 3 3 8 9 7 8 10 8 9 5 8 9 8 9 10 7 6 8 10 8 9 14 13 10 6 3 6 5 5 7 12 7 9 14 3 10 6 14 12 12 11 11 6 7 8 9 14 9 17 21 17 18 19 13 12 9 11 15 15 17 19 16 14 13 9 4 7 9 11
22 21 19 18 15 11 11 10 7 3 2 2 4 2 4 3 1 2 5 8 5 5 5 5 7 7 5 4 7 8 7 10 12 15 10 9 10 6 10 13 12 7 7 7 7 8 7 8 9 10 10 10 5 6 5 10 20 16 13 7 9 6 6 10 9 6 11 16 22 20 18 15 10 8 9 9 14 16 14 14 8 7 6 6 6 6 8
21 20 18 16 13 10 10 8 6 2 3 3 2 5 1 1 2 2 2 3 4 7 7 7 7 4 4 4 8 7 9 9 9 11 8 5 4 8 10 12 12 8 6 7 11 10 9 12 12 10 10 10 10 11 14 12 13 12 11 10 11 3 6 9 7 8 6 12 16 21 17 13 12 17 16 9 6 6 6 10 14 15 13 11 9 9 8
21 19 17 16 14 13 13 8 5 0 3 4 3 4 2 3 1 1 3 4 4 5 5 7 6 7 9 10 10 8 10 10 7 6 5 7 10 8 10 11 8 8 9 11 11 10 9 8 11 11 12 15 13 12 13 17 17 15 12 9 7 6 6 8 1 2 7 11 17 11 10 14 16 3 9 11 11 9 6 4 6 8 8 6 11 13 8
21 19 18 16 15 14 13 12 7 7 8 5 4 5 3 1 2 3 4 4 6 4 3 6 7 9 11 12 11 12 12 10 10 6 13 8 10 12 10 9 5 6 5 8 10 11 10 11 11 11 14 17 17 17 19 20 19 15 13 14 13 12 8 9 3 2 6 10 7 13 18 15 4 4 7 13 12 11 10 3 1 2 3 3 2 2 1
20 19 18 17 16 15 13 12 10 7 3 4 5 6 3 3 2 2 3 4 6 5 5 7 8 12 13 15 13 10 9 10 10 13 11 8 9 11 8 6 6 5 12 12 13 9 7 8 11 11 16 14 14 14 18 19 18 19 17 17 14 12 9 7 5 4 3 3 4 10 10 3 1 4 6 4 9 9 10 5 3 2 4 5 3 4 4
20 19 18 15 15 16 16 14 8 6 2 3 4 4 4 3 4 4 3 2 6 5 5 9 10 11 10 10 11 12 11 12 12 9 7 6 9 12 10 5 5 6 7 9 6 2 4 3 8 7 6 5 7 10 11 17 17 19 21 18 15 17 9 7 8 3 5 4 6 5 0 1 1 1 2 3 5 7 10 6 1 4 4 2 10 6 8
20 19 18 17 16 14 12 12 12 7 3 5 3 4 4 5 5 2 2 2 7 8 5 6 5 6 9 10 9 10 9 9 10 6 6 7 7 5 9 11 8 9 8 6 2 0 2 1 3 4 7 2 4 4 3 2 4 7 8 8 12 10 12 4 5 3 3 5 4 2 5 7 5 4 4 2 4 9 14 11 0 5 6 2 3 6 1
19 18 18 17 15 15 13 12 10 5 1 2 4 4 5 4 3 4 4 4 3 7 5 9 8 6 7 8 9 10 9 7 7 8 8 5 7 9 8 7 10 9 5 2 1 1 1 2 4 3 3 3 4 6 1 3 3 5 4 9 10 8 9 12 9 4 5 4 5 4 6 5 6 1 2 5 9 14 7 10 1 2 3 2 3 8 4
19 18 18 17 15 14 14 13 10 6 3 6 3 3 4 4 4 6 4 4 4 8 6 12 10 9 8 8 7 4 1 5 6 6 6 7 8 11 9 7 6 4 4 2 1 1 2 2 2 3 5 4 3 3 4 2 3 6 11 7 10 8 5 2 3 3 2 4 4 3 1 3 4 2 4 4 5 7 6 6 5 2 3 1 4 8 5
18 18 18 18 17 15 14 13 13 7 2 6 5 3 3 2 3 2 4 4 5 7 6 10 9 5 5 4 7 7 6 5 5 2 6 7 7 6 6 7 8 4 4 1 0 1 3 2 4 4 6 5 6 6 3 5 0 1 4 5 4 6 5 5 3 4 8 4 4 0 1 4 12 15 17 10 1 4 5 7 8 4 1 1 5 6 4
18 17 16 16 16 17 16 14 13 12 7 3 3 4 5 4 5 6 4 5 5 7 2 5 4 10 11 8 11 9 7 8 7 6 7 8 3 1 7 3 4 3 4 1 1 3 2 3 1 1 3 2 3 4 2 1 3 2 5 2 2 1 1 2 6 6 6 6 3 3 2 3 13 21 17 9 2 7 5 4 2 6 5 6 7 9 7
18 18 17 17 16 15 16 13 12 10 11 1 3 5 5 3 4 8 7 6 4 9 8 9 7 13 8 8 7 7 8 8 4 4 5 7 3 8 6 2 2 4 3 1 2 2 2 3 4 1 4 4 3 3 2 6 3 1 3 2 1 3 3 4 5 4 4 6 5 1 3 5 21 26 11 7 2 3 7 8 6 5 8 9 9 8 6
18 18 17 17 16 16 16 15 13 11 9 9 3 4 5 3 5 4 6 6 5 8 8 6 9 12 10 10 11 12 11 10 6 6 6 7 4 4 4 1 3 4 3 3 4 3 3 3 4 3 3 2 3 2 2 2 3 4 7 1 3 3 2 1 2 2 1 4 3 1 4 12 16 10 3 7 2 4 8 10 10 5 7 7 9 9 7
18 18 18 17 17 15 15 15 14 11 11 9 4 2 6 4 2 3 4 6 6 8 7 7 7 12 15 15 15 14 15 16 17 11 8 9 4 5 4 6 7 2 2 1 2 2 1 1 3 3 4 5 0 4 2 4 1 2 5 4 2 6 3 3 2 2 2 3 4 6 9 10 10 8 6 11 8 7 8 11 10 9 6 4 9 8 7
19 18 18 17 16 16 14 15 13 12 11 9 5 2 5 6 4 3 4 6 5 7 7 9 10 11 11 15 16 16 15 14 15 12 10 8 9 6 7 6 7 2 1 3 3 3 4 1 4 3 6 4 4 2 2 4 1 1 1 4 2 3 2 2 1 0 3 8 10 9 7 9 13 12 12 15 13 7 9 12 12 7 7 6 10 8 8
19 19 19 18 18 16 16 14 14 12 11 10 6 2 4 4 4 3 4 5 5 7 8 8 4 5 5 9 9 7 11 12 13 14 11 8 9 7 5 7 2 2 3 5 5 3 1 2 3 3 6 4 5 2 2 2 2 3 1 1 1 3 2 1 2 1 2 3 4 6 8 9 11 12 16 17 14 8 6 11 11 10 10 11 9 10 10
20 20 19 18 17 17 17 16 14 13 12 12 8 4 4 4 3 4 4 4 3 3 8 6 9 12 14 15 12 13 11 8 5 9 11 11 12 10 10 6 4 5 7 7 3 3 1 2 2 2 5 5 3 4 3 2 2 1 2 0 1 0 3 1 1 1 2 1 9 9 8 4 8 11 14 15 13 11 7 8 8 9 9 9 8 8 10
20 20 20 20 19 18 17 16 15 14 13 12 10 4 3 6 4 3 4 7 6 4 6 8 5 1 5 9 11 9 11 13 13 11 14 15 15 16 15 10 8 8 7 2 5 5 4 3 4 5 7 4 2 3 3 1 5 4 2 4 2 1 2 2 2 2 3 6 3 4 3 9 15 17 17 14 11 9 5 7 11 11 13 12 11 10 10
18 20 20 20 20 18 18 17 16 15 13 10 7 5 6 7 6 6 6 5 5 5 5 7 7 8 4 13 16 13 11 10 10 10 11 12 12 12 12 10 10 7 7 5 5 5 2 3 3 6 5 6 5 7 5 5 2 1 0 4 2 1 2 2 0 1 1 1 2 4 2 3 9 12 13 14 15 12 11 3 9 10 10 11 13 11 10
22 22 21 20 20 20 18 18 16 15 12 12 9 7 7 8 8 7 7 7 6 5 6 9 9 11 10 16 12 10 12 10 8 9 9 10 11 11 12 12 10 9 6 5 4 4 3 4 7 4 5 4 5 4 4 4 1 1 3 4 2 1 1 1 2 2 2 1 1 2 5 5 4 8 12 12 13 12 9 7 4 7 7 8 12 13 12
22 22 22 21 20 19 18 17 16 14 14 9 5 8 9 10 10 8 8 7 7 3 4 8 9 7 5 8 11 12 10 9 8 6 7 11 12 12 11 11 9 8 7 6 7 5 3 4 3 6 6 2 3 6 3 2 2 2 3 2 1 1 2 4 3 1 2 3 2 1 1 4 4 5 8 11 12 12 10 6 5 6 6 9 11 11 12
23 23 22 20 19 18 18 17 16 15 11 4 3 2 4 3 1 2 6 6 6 2 2 4 7 5 4 6 9 10 10 9 5 8 8 5 9 11 11 10 10 9 7 6 4 5 3 4 4 4 3 1 3 3 3 1 2 2 2 3 3 2 1 1 0 2 3 1 1 2 3 3 2 9 9 9 9 11 9 8 7 6 7 8 11 10 8
23 23 21 19 18 17 17 16 15 13 9 2 1 2 1 2 2 2 5 5 6 2 1 3 8 7 8 4 7 9 9 10 9 6 7 8 7 7 6 9 9 8 7 6 4 3 0 3 2 2 1 3 2 2 2 3 3 2 2 5 4 2 2 1 2 3 4 4 3 5 4 4 1 7 11 11 8 10 10 9 8 7 6 8 10 9 9
22 21 18 17 16 18 17 16 15 12 5 5 6 5 4 3 1 0 4 5 1 2 2 5 6 2 4 5 3 6 9 11 9 5 3 3 5 4 4 5 5 9 7 5 1 1 2 3 4 6 4 0 3 3 2 2 4 4 5 5 4 3 2 3 3 2 0 3 8 7 4 4 1 4 4 6 9 4 7 6 6 6 7 7 8 9 9
21 19 17 16 16 17 16 14 13 10 6 8 13 17 19 22 21 16 9 4 1 3 2 3 5 4 4 4 8 10 6 6 2 3 4 1 2 2 3 5 3 4 3 4 0 2 1 1 2 5 1 1 2 2 2 4 4 3 3 3 3 3 5 5 3 2 4 6 4 4 4 3 3 6 6 5 8 7 4 5 5 5 7 8 9 9 9
21 20 17 16 14 14 14 13 11 10 10 7 8 8 9 17 17 21 10 3 3 2 2 3 3 4 5 3 4 8 1 3 3 2 2 2 2 2 3 3 2 3 1 3 0 1 0 1 4 4 2 3 3 2 3 2 3 3 2 2 3 5 5 6 6 4 5 8 10 10 7 4 4 4 7 8 8 5 1 4 3 6 7 7 8 8 6
22 21 19 17 15 12 13 12 5 4 4 5 6 8 8 12 13 9 8 6 3 2 2 3 2 5 4 2 2 6 2 3 2 1 1 3 1 1 2 1 2 3 2 3 0 3 2 2 0 2 4 1 2 2 2 2 2 4 3 3 5 5 5 6 6 5 6 10 12 10 8 7 8 8 7 7 7 3 2 3 3 3 6 7 6 7 7
24 21 19 16 11 7 1 2 2 4 3 4 6 6 11 7 7 5 8 5 3 2 3 3 2 4 3 4 5 2 3 2 2 2 1 2 3 2 2 1 2 0 1 1 2 1 2 1 1 3 2 3 2 2 1 2 3 4 5 4 4 6 6 7 4 7 10 11 13 12 12 10 9 8 8 8 6 3 2 2 3 4 5 5 5 5 6
24 22 17 7 2 3 0 2 2 3 5 5 3 6 8 7 3 2 2 1 1 1 3 2 4 5 2 4 3 2 4 4 3 2 2 2 2 2 2 3 2 1 1 1 2 3 2 1 2 3 2 3 5 6 7 5 4 3 3 3 4 4 5 5 4 6 12 12 15 12 10 9 7 6 7 7 4 3 6 7 6 4 3 4 4 5 4
22 19 3 3 1 2 1 1 2 5 9 11 3 2 1 1 2 2 2 3 3 5 4 3 6 4 2 4 6 2 1 2 1 1 2 0 0 1 1 1 2 1 2 1 1 1 1 2 3 3 3 4 4 4 4 4 4 2 3 5 5 5 4 4 3 6 12 12 12 10 9 7 6 5 6 6 4 4 3 3 3 4 3 2 2 2 4
11 5 2 0 0 2 1 5 6 12 7 3 1 0 1 1 0 1 2 2 1 2 2 4 5 4 5 5 7 3 4 2 4 1 1 1 1 1 0 0 1 0 1 2 2 1 1 3 2 3 1 6 6 8 7 4 4 5 5 4 1 2 3 4 5 6 8 8 8 6 6 5 4 4 2 5 4 4 4 4 3 4 4 5 5 5 4
2 4 2 2 1 4 9 7 8 7 2 1 0 1 2 1 1 3 1 0 1 3 3 4 3 5 8 8 6 4 2 4 3 2 1 0 0 1 0 1 0 1 2 1 2 1 2 2 1 1 4 6 5 7 8 7 6 6 5 4 2 4 3 4 4 3 4 6 4 4 4 5 4 5 4 4 4 4 4 3 3 4 6 7 9 8 7
3 2 3 2 4 4 5 8 6 1 0 0 0 1 0 2 2 1 1 2 1 2 2 3 2 3 3 3 3 6 1 1 1 1 1 2 1 1 2 1 2 2 0 1 1 3 1 1 3 2 3 5 3 5 7 8 9 10 8 7 2 4 3 6 9 6 6 7 4 4 4 4 4 5 6 6 4 4 3 3 3 4 6 7 7 6 6
2 1 4 5 5 6 5 2 1 2 1 1 1 2 2 2 0 1 1 0 2 1 2 2 4 4 3 3 4 3 2 2 1 1 1 2 2 1 1 1 1 1 2 0 1 0 1 2 3 1 2 2 9 9 8 8 9 9 10 9 9 4 5 8 8 6 5 7 6 6 3 5 8 7 7 6 5 4 4 5 7 7 6 5 6 6 7
12 8 2 3 2 2 0 2 2 1 2 2 1 3 2 2 1 2 3 1 1 1 2 2 4 3 4 2 3 3 2 2 2 2 2 2 1 1 2 0 1 2 1 2 1 2 4 2 2 6 9 10 9 9 8 6 5 6 7 6 5 7 7 7 9 10 9 9 9 8 9 10 9 8 7 7 8 7 6 5 5 5 5 5 6 6 6
3 1 0 1 1 3 1 3 1 1 2 0 2 4 4 5 4 3 5 4 2 3 1 4 5 4 5 1 1 1 1 1 2 1 2 1 1 2 2 1 4 2 1 3 2 4 2 3 7 6 7 9 10 10 8 6 6 6 8 8 8 10 11 11 10 11 10 9 9 9 9 9 8 8 8 7 7 7 5 5 5 5 5 6 7 7 6
2 2 2 2 1 3 2 2 1 3 4 4 1 3 4 7 9 7 5 4 2 8 5 3 3 3 6 2 0 2 0 2 0 1 2 1 2 2 3 0 2 1 2 4 4 3 3 5 4 7 10 10 10 8 8 8 8 6 6 8 9 9 9 8 13 12 11 11 10 9 10 7 8 8 7 7 6 5 6 5 4 5 5 6 6 7 6
2 1 2 3 5 3 2 1 2 4 1 1 3 5 7 8 6 7 7 3 6 8 8 7 4 2 3 1 1 2 1 1 1 1 0 1 2 4 2 1 1 3 4 4 5 7 5 6 6 9 9 7 7 9 10 10 9 6 4 9 9 9 7 8 8 6 7 6 2 3 6 5 6 5 6 4 4 4 4 4 4 5 5 6 7 6 5
1 1 2 1 1 2 0 2 4 1 3 5 7 6 6 8 7 8 6 3 6 6 7 6 4 2 1 2 1 2 1 1 1 1 1 2 3 1 1 2 4 3 4 5 5 3 4 7 8 9 9 9 10 10 10 9 9 10 8 4 4 6 5 6 6 6 5 6 7 8 7 7 6 6 5 6 6 5 5 5 6 6 6 6 5 5 5
1 1 1 2 2 1 5 3 2 3 2 5 8 8 7 5 5 8 6 3 5 4 3 4 4 3 2 2 1 1 2 1 2 3 2 1 0 2 3 3 5 3 3 3 3 1 3 7 9 9 9 10 10 10 11 11 11 12 12 11 9 9 8 8 8 7 7 8 7 7 7 7 7 7 6 6 7 7 7 6 6 6 6 6 7 6 6
1 0 0 1 1 0 3 6 6 7 6 4 7 6 8 8 8 9 8 5 5 6 3 1 3 1 2 3 3 4 5 5 4 3 3 3 4 3 3 4 5 7 8 7 9 8 8 7 6 8 9 9 10 10 9 10 10 10 10 9 8 7 8 10 9 9 9 9 8 8 8 8 8 8 8 8 8 8 8 7 8 7 6 7 8 9 9
0 2 1 1 3 2 4 4 4 8 9 9 10 11 10 9 10 10 7 7 8 6 4 2 1 3 1 3 2 3 2 4 3 2 3 7 5 3 3 7 8 6 6 6 6 6 5 5 6 8 8 8 8 9 10 11 12 10 9 9 9 9 9 10 12 12 11 10 11 11 10 9 9 9 9 9 7 6 9 10 9 9 9 9 8 8 8
0 2 2 1 3 5 6 9 10 9 11 11 10 10 9 9 9 10 10 6 8 6 7 6 3 3 3 4 2 3 2 3 3 7 5 6 4 3 5 9 6 6 7 5 6 6 6 6 7 6 6 7 7 7 7 6 4 6 8 9 9 10 10 11 11 11 11 11 11 11 11 8 7 8 8 9 10 10 11 11 11 10 10 9 8 9 9
1 4 5 5 6 6 6 3 4 6 5 7 8 9 8 10 10 8 8 6 9 12 10 5 2 3 3 6 4 1 2 2 3 3 7 5 4 6 7 7 8 7 7 7 8 7 7 7 7 8 7 7 7 7 7 7 8 9 8 8 8 9 10 10 10 10 10 10 10 9 8 9 9 9 10 11 11 11 10 8 8 9 9 7 7 7 9
Wind_Direction
327 326 326 327 328 328 327 329 327 332 344 351 344 319 312 302 273 274 303 297 321 341 319 280 300 274 279 311 299 290 283 281 279 284 289 300 295 290 265 268 280 273 321 315 307 294 274 263 263 287 286 279 285 5 28 15 341 227 205 200 200 181 194 201 236 245 266 248 255 288 228 198 204 210 198 185 201 187 185 169 190 177 245 208 226 233 258
323 323 322 323 324 323 324 325 327 330 359 345 329 331 312 300 287 308 104 304 295 26 296 329 315 303 310 300 308 318 301 278 267 268 308 306 295 296 305 312 17 335 9 310 357 360 312 26 3 296 329 288 8 3 27 2 343 335 358 280 175 199 212 173 189 228 240 265 270 276 264 230 213 200 199 200 197 179 177 150 124 214 213 183 160 232 259
320 320 319 320 321 321 323 324 325 327 357 358 344 323 306 289 256 238 291 300 332 289 319 337 340 344 348 341 337 328 328 337 333 347 321 303 278 311 308 327 327 356 13 335 6 12 7 301 335 337 315 299 331 6 360 343 331 337 324 343 326 230 186 170 196 202 207 212 221 215 208 212 220 205 195 199 196 187 134 209 170 213 247 157 209 255 256
319 320 319 319 320 322 321 320 323 327 338 344 354 287 322 328 318 305 304 332 307 231 360 10 8 347 345 346 332 327 328 327 328 332 314 313 308 292 311 317 10 27 1 6 350 346 333 325 301 349 326 325 339 356 330 332 320 345 358 351 343 281 234 194 201 200 210 221 214 228 148 161 215 208 195 197 200 193 193 163 168 215 168 207 223 171 270
319 317 319 318 319 322 319 315 317 321 324 344 329 288 240 286 280 309 322 334 156 357 354 3 356 342 320 313 305 323 318 320 314 325 293 332 320 319 302 349 25 344 16 358 329 354 326 325 306 360 321 312 288 316 302 326 352 3 356 349 329 325 291 236 209 207 207 198 212 212 170 191 203 203 200 198 197 194 191 186 218 130 125 238 211 203 206
318 317 317 317 319 320 316 311 306 303 315 236 283 297 242 274 256 303 314 312 303 338 338 350 327 313 322 284 294 310 314 324 318 330 333 347 333 324 284 311 44 11 4 346 332 336 329 309 321 336 338 330 334 332 360 299 14 4 354 343 350 314 275 286 234 216 211 201 210 215 200 193 197 204 195 196 199 196 199 205 181 152 186 221 180 193 199
318 317 315 316 317 315 315 310 302 286 304 224 250 256 249 233 288 282 332 318 308 316 299 308 308 313 327 308 304 305 311 319 323 319 316 337 330 334 319 318 336 355 344 6 291 349 336 306 331 357 330 342 330 325 343 135 9 356 345 343 326 311 247 274 277 230 214 209 204 217 211 197 193 205 203 195 195 204 205 203 188 178 203 190 181 198 213
319 316 314 311 312 318 313 309 303 299 337 207 255 223 259 273 305 300 2 242 293 288 291 309 312 303 320 321 292 289 300 300 318 334 338 320 309 336 346 327 338 337 336 324 298 294 271 288 304 325 335 319 0 309 257 312 325 349 333 325 336 14 282 329 328 252 219 208 209 210 219 198 206 205 210 203 198 202 204 205 203 196 212 191 196 206 232
323 317 314 311 312 315 311 306 301 332 44 270 216 248 192 275 343 230 300 302 274 290 303 298 304 306 302 281 299 316 326 319 325 305 306 279 285 335 316 312 317 321 313 300 283 281 284 278 268 302 308 290 321 311 298 330 307 325 324 324 315 316 275 322 328 312 236 211 205 210 217 214 194 210 207 208 205 200 199 209 190 165 190 200 195 217 235
329 327 322 317 316 313 302 302 301 124 149 224 248 259 164 213 214 256 222 274 295 307 297 297 304 277 271 321 315 311 304 289 310 305 290 253 284 316 315 311 309 298 279 274 285 276 276 279 284 287 272 263 268 255 271 280 280 290 289 289 287 288 307 325 335 336 278 224 205 206 207 222 239 224 214 182 192 216 225 213 191 194 190 191 199 227 208
337 337 333 328 323 317 315 320 323 57 155 235 242 243 299 253 256 253 216 263 273 241 282 283 265 279 313 310 303 293 279 293 279 305 291 308 308 310 302 294 294 281 272 272 272 280 260 266 278 274 272 274 261 259 259 261 258 258 268 284 265 257 276 283 69 291 284 261 187 183 198 216 226 228 160 174 196 187 180 212 225 237 205 197 199 221 216
340 340 339 334 328 327 321 318 295 217 187 229 222 255 252 267 252 222 250 260 277 292 279 269 282 290 293 300 303 302 314 308 301 240 270 294 301 305 294 285 282 265 253 267 282 272 271 264 263 267 270 264 262 257 251 252 256 259 250 251 265 267 267 266 217 250 271 277 135 159 205 219 237 259 180 185 179 172 182 180 4 282 204 252 326 330 299
342 341 341 339 334 329 323 321 326 318 212 200 218 244 233 190 231 224 240 259 269 290 286 276 280 288 293 293 292 294 275 277 267 270 281 296 302 297 288 287 292 289 324 324 318 284 263 291 293 285 269 266 256 240 242 245 254 255 259 251 249 260 254 261 247 201 276 262 209 191 207 231 269 331 282 171 152 164 128 38 355 341 279 198 136 156 149
340 341 343 340 339 339 337 332 337 331 263 223 221 234 221 180 222 227 219 259 275 259 276 289 283 275 278 288 306 305 309 302 301 307 297 301 296 290 291 269 262 287 306 308 303 295 314 345 320 316 312 276 279 269 232 232 230 238 244 247 241 241 245 232 268 201 256 248 229 212 213 70 97 3 357 143 162 159 150 119 287 289 321 180 147 159 142
339 340 340 337 335 336 336 336 337 354 14 206 236 231 229 232 234 239 261 226 273 281 258 276 270 290 308 306 315 315 306 301 311 296 281 282 279 289 311 306 312 317 318 305 281 293 176 272 316 318 313 21 271 258 71 269 317 282 275 268 275 238 225 185 219 258 175 214 236 176 154 180 232 233 267 314 143 132 135 109 334 327 353 0 125 119 91
341 341 339 340 338 334 333 333 336 331 262 287 224 237 235 218 204 212 236 245 288 286 234 224 254 300 301 294 299 293 290 312 301 299 305 294 286 304 305 328 326 315 334 279 186 146 215 154 246 243 272 282 337 337 260 268 281 257 252 275 302 324 208 214 212 260 295 250 209 211 176 230 211 175 235 150 123 119 89 76 93 278 312 332 104 89 85
342 343 342 342 343 341 336 333 327 336 309 204 229 216 260 191 219 218 218 235 218 240 308 317 302 291 303 295 290 264 161 263 301 323 311 312 317 309 306 327 311 324 329 312 10 237 271 228 273 264 274 307 293 242 274 20 289 322 335 345 354 342 1 40 169 264 224 233 206 222 199 140 253 198 125 174 151 113 85 99 228 262 320 321 95 90 94
342 343 344 343 342 341 338 337 341 337 36 234 216 247 251 160 188 149 233 230 251 268 244 246 250 260 244 259 278 280 286 284 288 278 258 290 301 307 329 328 334 355 329 16 287 41 231 221 231 233 249 224 262 293 221 231 63 5 322 293 322 354 339 51 10 347 315 299 260 286 347 18 4 353 337 316 129 81 144 193 205 215 205 31 86 77 66
340 342 340 340 341 340 338 337 341 338 346 337 272 251 258 207 184 210 224 240 227 256 182 283 304 283 272 276 266 268 260 284 290 292 292 298 249 284 316 331 38 320 357 1 241 216 220 242 188 263 275 266 231 226 275 122 205 307 301 330 335 15 306 29 44 8 329 301 239 213 138 143 4 342 321 298 150 186 207 225 131 128 101 58 60 76 56
337 340 337 337 340 338 336 336 329 335 327 325 204 259 260 260 203 192 218 242 229 265 263 257 247 259 262 267 284 287 294 280 240 238 254 266 322 329 331 341 295 246 280 232 248 279 255 246 218 196 258 256 250 269 344 221 234 184 265 298 52 320 32 42 50 331 327 311 311 18 97 323 355 334 328 28 69 241 164 120 85 92 85 74 55 55 39
334 334 334 335 335 336 335 332 331 330 326 332 294 275 288 210 239 197 195 242 272 290 284 228 237 245 254 251 245 251 265 269 269 268 252 262 297 333 289 234 338 27 307 3 321 328 337 320 341 282 265 266 290 306 219 208 140 246 277 210 105 255 99 76 80 111 34 303 356 348 276 300 322 339 324 316 314 135 119 117 96 63 74 81 77 48 45
331 331 331 333 331 331 333 331 329 335 330 323 302 250 272 275 251 142 204 213 241 244 262 278 283 274 266 261 260 254 253 256 254 247 269 282 258 236 262 301 292 200 259 284 305 301 210 285 290 255 278 286 178 225 313 37 205 185 263 262 160 309 124 187 145 205 134 276 279 270 304 314 316 313 339 4 31 53 93 93 99 102 73 76 82 70 53
330 329 329 328 328 328 330 328 326 327 323 321 319 219 268 294 280 187 192 244 229 252 265 272 265 265 266 261 251 246 243 238 248 249 235 245 268 249 256 256 264 147 236 195 221 230 259 248 259 290 281 245 261 289 252 225 286 305 243 289 119 53 40 164 88 123 229 252 240 273 294 330 344 350 13 20 10 25 73 94 94 70 92 84 95 95 78
326 326 326 326 324 325 324 324 324 322 318 316 308 254 271 249 268 292 261 251 260 286 271 240 266 263 242 270 273 243 230 237 232 236 226 206 244 266 239 238 237 187 225 210 191 229 235 201 293 296 284 286 318 280 228 217 207 264 201 342 38 159 56 144 105 288 30 324 315 324 325 345 2 358 12 21 6 0 44 80 86 98 95 93 93 98 97
322 322 321 320 321 320 321 321 322 319 319 317 315 282 269 270 235 223 262 291 268 284 295 294 252 258 267 266 273 271 261 250 233 231 234 212 219 235 250 233 201 193 236 225 170 233 225 262 283 271 284 291 300 284 319 338 139 313 346 33 84 217 336 43 82 88 148 240 302 298 296 3 18 23 19 16 358 345 18 70 78 86 82 84 90 96 91
319 317 314 314 313 314 315 316 316 316 315 314 313 288 266 262 243 202 234 247 250 243 273 288 301 181 294 301 283 275 295 292 275 247 237 228 216 223 242 253 251 240 264 145 153 217 245 225 232 242 270 295 209 280 274 270 283 299 194 230 220 326 355 183 163 164 259 250 241 329 307 16 359 9 14 3 356 336 344 83 94 91 90 89 79 74 83
307 311 311 308 305 306 307 309 309 307 308 303 294 267 259 263 233 212 217 231 276 267 232 255 274 281 295 291 287 289 274 256 254 253 248 242 235 229 233 241 249 251 247 230 200 213 210 230 240 269 257 267 292 282 267 277 223 230 320 289 251 171 215 220 75 61 55 295 315 297 7 15 349 357 11 360 350 349 319 340 87 91 94 92 90 76 69
306 306 308 307 304 300 300 300 302 304 303 303 297 275 263 258 247 217 208 208 206 256 291 287 293 293 302 274 264 263 271 273 260 240 237 237 228 226 228 234 234 240 234 234 242 213 208 257 263 249 252 264 280 263 205 236 243 256 175 248 258 173 172 93 147 157 198 291 354 58 130 94 38 13 12 4 2 349 323 317 51 81 91 98 96 90 73
301 304 304 304 303 298 297 296 296 300 302 302 295 291 278 248 248 224 210 187 196 245 262 279 277 277 278 297 312 297 283 272 264 248 226 225 227 228 231 234 237 228 232 227 230 222 193 234 241 256 262 209 263 272 308 273 203 204 202 195 183 229 293 295 285 307 273 265 241 200 222 144 118 60 34 21 1 353 330 333 11 55 74 83 81 83 92
303 308 306 303 300 296 295 295 292 291 294 314 331 306 315 308 236 184 164 163 161 154 257 308 303 280 295 294 283 278 286 278 271 275 266 239 231 229 225 226 234 235 227 225 181 241 203 231 218 232 251 138 252 303 304 293 297 249 104 42 7 307 250 237 138 246 245 351 101 55 84 84 91 104 78 51 15 358 337 336 360 31 52 62 81 79 72
304 309 308 304 299 295 294 292 290 283 281 254 247 294 304 294 265 177 148 147 161 140 221 224 263 298 292 229 242 277 299 304 290 268 252 249 237 233 218 207 221 214 224 230 199 231 230 252 279 219 147 216 215 285 287 321 306 294 335 5 354 21 36 4 258 230 237 240 156 104 111 111 118 79 72 71 35 351 338 339 349 25 49 60 66 75 72
306 311 303 296 290 291 290 288 282 278 254 221 204 195 195 180 193 77 141 136 69 320 264 297 292 248 270 288 294 305 300 300 296 269 245 204 242 233 248 208 218 192 206 194 198 35 269 268 268 289 293 352 280 278 278 269 277 265 331 3 13 20 35 16 355 327 178 130 132 109 90 78 55 122 126 108 93 24 341 335 347 339 21 53 61 63 65
307 302 297 290 288 290 288 280 271 261 236 242 247 255 263 270 267 259 252 264 163 213 210 236 251 293 278 282 325 312 348 312 305 315 321 272 263 239 238 205 179 154 132 94 63 197 264 324 328 299 263 124 227 251 261 247 247 328 345 8 15 12 24 15 18 19 87 68 58 117 141 142 111 89 98 86 86 70 345 339 326 4 29 41 46 48 50
309 307 301 292 280 274 267 261 258 252 255 253 263 245 243 239 246 251 239 150 236 220 204 235 270 264 277 340 339 286 294 304 292 323 330 301 22 353 246 190 189 150 73 202 291 342 292 242 267 296 325 249 225 286 273 269 337 334 343 16 356 8 8 30 35 39 72 84 76 62 52 61 85 100 95 85 69 68 25 306 329 47 37 40 39 41 40
316 311 304 295 284 268 267 269 254 212 228 234 243 256 247 230 215 218 183 158 176 233 222 228 222 276 296 259 260 277 290 293 301 296 243 265 264 280 311 50 3 203 258 81 159 207 217 241 23 248 251 247 241 244 273 320 306 358 31 42 24 18 23 47 40 30 59 77 75 69 54 44 62 59 61 63 73 75 47 10 358 46 62 44 39 37 41
317 312 311 298 293 287 290 181 160 178 218 232 228 232 229 228 199 177 172 181 159 229 251 271 253 253 292 304 320 300 359 284 257 286 244 268 356 35 29 78 52 115 123 156 231 193 210 177 175 253 9 299 278 278 276 0 17 42 58 60 45 42 51 52 38 72 70 74 77 68 58 43 43 45 51 50 46 15 350 20 16 35 57 56 42 36 45
314 317 316 312 336 86 3 202 180 191 223 207 91 66 84 104 81 98 117 258 219 192 247 280 265 254 262 283 289 280 355 315 341 332 329 15 357 298 17 38 331 328 24 266 207 216 179 166 251 290 308 297 306 4 22 10 38 66 79 42 41 39 53 59 23 49 75 68 69 66 59 51 43 38 54 46 13 26 40 20 350 1 45 67 57 48 38
315 318 352 21 24 353 295 268 203 270 247 261 213 98 356 82 191 210 184 206 206 184 211 218 248 272 281 260 256 261 327 280 50 289 324 314 325 36 331 88 249 13 306 331 301 115 215 25 3 357 347 309 312 315 349 21 48 51 72 63 47 53 56 51 26 62 75 70 66 69 65 51 51 32 56 55 39 42 48 51 22 12 5 29 60 69 54
310 303 355 334 58 299 266 279 321 327 305 285 102 354 251 175 233 258 217 208 130 248 188 212 251 206 231 254 263 251 222 300 329 306 342 22 25 12 254 224 316 71 340 345 305 191 51 26 21 21 4 274 284 4 18 357 16 29 73 101 59 83 84 51 36 67 96 109 114 119 129 122 116 100 84 91 72 59 42 43 28 16 6 23 31 35 47
348 359 358 318 336 287 295 291 324 322 287 249 131 125 278 205 120 279 190 157 277 220 171 244 221 218 203 222 256 304 143 170 215 307 255 78 41 155 38 18 77 249 268 272 345 17 58 41 46 92 13 328 336 351 14 25 53 51 7 3 32 41 42 74 71 55 87 98 123 154 180 172 178 145 144 113 104 94 68 40 27 25 30 38 45 45 43
3 327 347 308 294 307 296 312 318 228 163 286 305 246 313 307 221 282 338 268 226 266 188 254 261 253 210 215 203 250 224 208 295 256 302 293 137 264 133 172 163 216 337 329 14 57 85 71 38 52 208 239 286 26 16 12 30 49 31 21 44 187 170 80 53 40 107 125 139 132 109 109 113 105 104 115 122 110 94 77 41 35 42 40 42 39 30
274 211 261 293 281 275 288 269 182 305 246 175 92 281 211 221 174 3 122 144 279 264 247 214 266 293 291 202 217 210 243 170 203 217 170 258 180 212 214 204 73 309 57 129 146 24 36 62 348 268 201 69 53 45 33 31 26 29 33 24 25 18 110 98 98 73 41 76 74 65 42 69 73 74 79 81 72 64 59 52 52 47 44 38 38 34 33
283 281 261 291 301 298 282 359 326 39 20 346 349 327 336 346 330 328 318 231 281 265 245 176 245 264 255 242 261 201 245 132 199 194 201 224 111 264 279 81 152 76 89 244 46 36 29 38 5 2 29 37 29 46 47 34 8 35 43 23 32 33 35 73 80 76 67 76 84 85 77 72 67 63 66 69 66 59 47 48 55 53 46 48 39 35 33
208 182 48 347 2 291 46 348 284 14 3 50 10 334 323 335 338 349 307 317 313 282 288 324 320 347 328 181 263 296 207 223 223 224 224 216 191 221 172 54 37 76 47 49 35 49 30 356 21 31 27 33 27 26 35 36 43 63 62 53 43 46 51 51 67 75 69 67 71 73 76 75 71 66 63 62 64 69 60 50 36 45 46 47 45 40 37
39 356 24 359 5 277 44 339 328 78 358 325 302 278 327 326 310 316 299 307 310 303 299 216 259 317 310 329 198 257 6 329 143 291 356 16 20 10 37 31 297 321 59 45 42 24 20 39 345 18 30 32 28 17 19 33 34 26 65 64 59 69 74 65 63 66 71 63 52 64 69 62 73 72 68 65 63 63 70 58 33 40 38 45 48 49 41
46 26 20 25 337 330 68 289 310 348 340 159 291 296 308 302 299 285 278 275 295 305 314 317 297 240 278 306 71 295 307 296 351 352 28 341 52 30 20 245 255 50 47 42 48 34 7 347 0 39 38 30 21 21 30 32 37 40 66 91 98 86 73 80 96 93 85 111 119 61 66 62 59 51 47 40 46 53 50 48 44 48 39 46 47 47 37
5 13 94 121 78 292 74 354 333 265 282 302 286 285 272 270 267 268 264 273 279 283 292 283 270 255 281 284 311 324 238 237 353 301 70 36 40 304 293 1 31 20 41 42 41 11 334 4 31 41 29 24 22 28 28 28 32 43 49 61 79 75 73 70 64 62 60 61 62 61 61 60 56 54 53 50 45 44 45 43 38 41 52 56 50 46 42
339 260 87 34 310 289 1 314 235 288 270 257 286 285 272 277 313 319 310 263 254 288 319 332 346 342 358 298 94 300 328 346 40 355 39 42 313 49 19 31 35 22 37 69 71 11 16 39 36 35 34 37 27 26 27 22 22 25 32 34 36 53 62 63 59 54 55 57 54 54 53 49 47 44 41 39 35 22 22 27 33 36 43 47 48 46 42
200 74 103 229 223 248 266 286 349 354 343 310 299 327 339 344 332 324 320 314 321 322 325 353 306 17 349 308 23 4 23 340 36 4 355 8 46 18 20 32 8 47 30 22 48 36 35 27 34 42 30 31 28 25 27 26 24 19 11 13 18 34 49 49 47 49 52 54 51 49 43 43 45 42 40 37 36 22 16 22 28 32 38 42 50 56 55
65 342 340 10 353 318 273 277 354 9 354 358 3 359 349 355 352 345 341 349 336 328 343 48 60 83 331 15 11 12 32 348 37 338 23 37 24 17 27 56 43 39 46 30 38 30 14 7 42 47 34 32 29 27 30 28 14 15 20 28 35 37 37 47 55 56 56 58 59 56 52 49 48 49 47 42 34 30 32 32 32 39 49 54 56 56 57
267 136 239 243 60 352 349 20 0 353 355 1 354 355 352 357 355 348 342 357 342 13 34 27 339 29 5 15 17 32 355 311 27 20 18 25 7 19 41 57 51 47 47 33 33 20 16 20 31 34 29 28 22 21 23 25 337 357 27 31 37 42 43 44 48 51 52 51 50 50 45 42 44 51 46 43 39 36 34 32 34 44 52 52 53 59 57
4 14 339 324 16 18 15 348 350 358 331 340 358 359 359 12 350 340 332 10 15 36 24 340 22 13 31 35 12 10 285 29 29 2 45 33 346 38 45 43 48 40 45 46 40 26 28 27 25 25 19 22 21 11 6 358 10 17 19 25 33 41 46 48 51 52 54 50 46 45 39 34 36 40 42 42 39 39 36 33 30 45 51 47 43 50 56